TimeEST,TemperatureF,Dew PointF,Humidity,Sea Level PressureIn,VisibilityMPH,Wind Direction,Wind SpeedMPH,Gust SpeedMPH,PrecipitationIn,Events,Conditions,WindDirDegrees,DateUTC
12:53 AM,62.1,57.9,86,29.82,10.0,SSW,3.5,-,N/A,,Clear,200,2012-12-18 05:53:00
1:26 AM,62.6,59.0,88,29.83,10.0,SSW,9.2,-,N/A,,Scattered Clouds,210,2012-12-18 06:26:00
1:35 AM,62.6,59.0,88,29.83,10.0,SSW,9.2,-,N/A,,Mostly Cloudy,210,2012-12-18 06:35:00
1:53 AM,63.0,60.1,90,29.84,10.0,SW,10.4,-,N/A,,Overcast,220,2012-12-18 06:53:00
2:53 AM,63.0,61.0,93,29.83,10.0,SSW,9.2,-,N/A,,Mostly Cloudy,210,2012-12-18 07:53:00
3:43 AM,62.6,60.8,94,29.84,10.0,SW,9.2,-,N/A,,Mostly Cloudy,220,2012-12-18 08:43:00
3:53 AM,63.0,61.0,93,29.83,10.0,SW,6.9,-,N/A,,Mostly Cloudy,220,2012-12-18 08:53:00
4:15 AM,62.6,62.6,100,29.82,10.0,SSW,8.1,-,N/A,,Partly Cloudy,210,2012-12-18 09:15:00
4:39 AM,62.6,62.6,100,29.83,10.0,SW,8.1,-,N/A,,Mostly Cloudy,230,2012-12-18 09:39:00
4:53 AM,63.0,62.1,97,29.84,10.0,SW,8.1,-,N/A,,Overcast,230,2012-12-18 09:53:00
5:20 AM,64.4,60.8,88,29.85,10.0,WSW,9.2,-,N/A,,Scattered Clouds,250,2012-12-18 10:20:00
5:53 AM,63.0,60.1,90,29.84,10.0,WSW,9.2,-,N/A,,Scattered Clouds,240,2012-12-18 10:53:00
6:05 AM,64.4,60.8,88,29.85,10.0,WSW,8.1,-,N/A,,Mostly Cloudy,240,2012-12-18 11:05:00
6:35 AM,62.6,59.0,88,29.85,10.0,West,9.2,-,N/A,,Scattered Clouds,260,2012-12-18 11:35:00
6:53 AM,62.1,57.9,86,29.86,10.0,West,9.2,-,N/A,,Scattered Clouds,260,2012-12-18 11:53:00
7:00 AM,62.6,57.2,82,29.86,10.0,WSW,10.4,17.3,N/A,,Mostly Cloudy,250,2012-12-18 12:00:00
7:33 AM,60.8,57.2,88,29.88,10.0,West,6.9,-,N/A,,Scattered Clouds,260,2012-12-18 12:33:00
7:53 AM,61.0,57.9,90,29.90,10.0,West,6.9,-,N/A,,Scattered Clouds,260,2012-12-18 12:53:00
8:30 AM,62.6,57.2,82,29.90,10.0,West,8.1,-,N/A,,Mostly Cloudy,260,2012-12-18 13:30:00
8:53 AM,63.0,57.0,81,29.91,10.0,West,11.5,-,N/A,,Mostly Cloudy,270,2012-12-18 13:53:00
9:08 AM,62.6,55.4,77,29.91,10.0,West,9.2,17.3,N/A,,Scattered Clouds,270,2012-12-18 14:08:00
9:53 AM,63.0,55.9,78,29.93,10.0,West,12.7,23.0,N/A,,Mostly Cloudy,270,2012-12-18 14:53:00
10:05 AM,64.4,55.4,73,29.93,10.0,WNW,12.7,24.2,N/A,,Scattered Clouds,290,2012-12-18 15:05:00
10:53 AM,64.9,52.0,63,29.94,10.0,West,13.8,19.6,N/A,,Clear,270,2012-12-18 15:53:00
11:53 AM,66.9,50.0,54,29.92,10.0,West,10.4,18.4,N/A,,Clear,270,2012-12-18 16:53:00
12:53 PM,68.0,45.0,43,29.91,10.0,West,10.4,24.2,N/A,,Clear,270,2012-12-18 17:53:00
1:53 PM,70.0,44.1,39,29.90,10.0,West,11.5,20.7,N/A,,Clear,270,2012-12-18 18:53:00
2:53 PM,69.1,42.1,38,29.91,10.0,West,11.5,20.7,N/A,,Clear,280,2012-12-18 19:53:00
3:53 PM,68.0,35.1,30,29.93,10.0,West,13.8,21.9,N/A,,Clear,280,2012-12-18 20:53:00
4:53 PM,66.0,34.0,30,29.96,10.0,WNW,5.8,-,N/A,,Clear,300,2012-12-18 21:53:00
5:53 PM,62.1,36.0,38,29.98,10.0,NW,3.5,-,N/A,,Clear,320,2012-12-18 22:53:00
6:53 PM,60.1,36.0,41,29.99,10.0,Calm,Calm,-,N/A,,Clear,0,2012-12-18 23:53:00
7:53 PM,53.1,41.0,64,30.01,10.0,Calm,Calm,-,N/A,,Clear,0,2012-12-19 00:53:00
8:53 PM,51.1,42.1,71,30.02,10.0,Calm,Calm,-,N/A,,Clear,0,2012-12-19 01:53:00
9:53 PM,53.1,37.0,55,30.03,10.0,Calm,Calm,-,N/A,,Clear,0,2012-12-19 02:53:00
10:53 PM,48.9,37.9,66,30.04,10.0,West,3.5,-,N/A,,Clear,260,2012-12-19 03:53:00
11:53 PM,48.9,37.9,66,30.04,10.0,WNW,3.5,-,N/A,,Clear,300,2012-12-19 04:53:00